TimeCDT,TemperatureF,Dew PointF,Humidity,Sea Level PressureIn,VisibilityMPH,Wind Direction,Wind SpeedMPH,Gust SpeedMPH,PrecipitationIn,Events,Conditions,WindDirDegrees,DateUTC
12:55 AM,58.6,52.3,80,29.96,10.0,NNW,3.5,-,N/A,,Clear,340,2012-10-16 05:55:00
1:55 AM,54.5,51.1,88,29.96,10.0,Calm,Calm,-,N/A,,Clear,0,2012-10-16 06:55:00
2:55 AM,54.1,48.7,82,29.95,10.0,North,4.6,-,N/A,,Clear,360,2012-10-16 07:55:00
3:55 AM,51.6,47.5,86,29.95,10.0,Calm,Calm,-,N/A,,Clear,0,2012-10-16 08:55:00
4:55 AM,49.5,46.0,88,29.96,10.0,North,4.6,-,N/A,,Clear,10,2012-10-16 09:55:00
5:55 AM,47.3,45.3,93,29.97,10.0,Calm,Calm,-,N/A,,Clear,0,2012-10-16 10:55:00
6:55 AM,45.7,43.3,92,29.97,10.0,Calm,Calm,-,N/A,,Clear,0,2012-10-16 11:55:00
7:55 AM,51.4,48.4,89,29.99,10.0,Calm,Calm,-,N/A,,Clear,0,2012-10-16 12:55:00
8:55 AM,59.9,48.2,65,30.00,10.0,NNE,6.9,-,N/A,,Partly Cloudy,30,2012-10-16 13:55:00
9:55 AM,67.6,48.0,49,30.00,10.0,ENE,5.8,-,N/A,,Scattered Clouds,60,2012-10-16 14:55:00
10:55 AM,72.1,45.7,39,29.99,10.0,NNE,11.5,-,N/A,,Mostly Cloudy,30,2012-10-16 15:55:00
11:55 AM,74.7,45.1,35,29.98,10.0,NE,10.4,-,N/A,,Mostly Cloudy,50,2012-10-16 16:55:00
12:55 PM,75.4,42.3,30,29.94,10.0,North,10.4,-,N/A,,Mostly Cloudy,10,2012-10-16 17:55:00
1:55 PM,75.6,44.2,33,29.93,10.0,NNE,8.1,-,N/A,,Mostly Cloudy,30,2012-10-16 18:55:00
2:55 PM,77.5,39.7,26,29.92,10.0,NNW,8.1,-,N/A,,Mostly Cloudy,330,2012-10-16 19:55:00
3:55 PM,75.4,37.4,25,29.90,10.0,North,6.9,-,N/A,,Mostly Cloudy,10,2012-10-16 20:55:00
4:55 PM,73.0,42.8,34,29.89,10.0,NNE,4.6,-,N/A,,Mostly Cloudy,30,2012-10-16 21:55:00
5:55 PM,68.2,49.5,51,29.88,10.0,Calm,Calm,-,N/A,,Mostly Cloudy,0,2012-10-16 22:55:00
6:55 PM,63.7,51.6,65,29.89,10.0,North,3.5,-,N/A,,Mostly Cloudy,10,2012-10-16 23:55:00
7:55 PM,62.1,51.3,68,29.89,10.0,Calm,Calm,-,N/A,,Overcast,0,2012-10-17 00:55:00
8:55 PM,60.4,52.2,74,29.90,10.0,North,3.5,-,N/A,,Overcast,10,2012-10-17 01:55:00
9:55 PM,59.0,51.1,75,29.91,10.0,Calm,Calm,-,N/A,,Overcast,0,2012-10-17 02:55:00
10:55 PM,58.1,51.6,79,29.91,10.0,Calm,Calm,-,N/A,,Overcast,0,2012-10-17 03:55:00
11:55 PM,57.7,51.3,79,29.91,10.0,Calm,Calm,-,N/A,,Overcast,0,2012-10-17 04:55:00